Wind_Speed
12 11 11 11 11 11 11 11 11 11 11 12 11 12 12 12 12 12 12 12 13 14 14 14 14 15 15 15 15 14 10 11 13 10 6 15 18 20 20 17 15 18 13 13 17
14 14 14 14 14 15 14 14 14 14 15 16 16 16 16 15 15 15 16 14 14 14 13 13 13 14 17 17 18 17 13 12 14 17 20 19 23 27 26 22 19 20 20 23 20
17 17 17 17 16 17 17 16 16 17 17 17 18 18 17 17 16 17 15 10 9 9 10 13 16 16 18 18 19 21 22 15 20 23 25 27 26 27 27 25 20 20 21 24 24
19 19 19 18 18 18 18 18 18 18 19 19 20 20 20 18 12 11 13 14 16 18 17 16 16 17 19 22 21 26 25 24 25 27 28 28 28 30 31 29 22 23 25 25 26
21 20 20 19 19 19 19 19 19 19 19 19 20 21 21 20 17 19 22 20 19 19 16 14 14 15 20 18 24 31 29 28 31 32 31 29 28 31 32 28 22 23 25 27 27
23 22 21 22 22 22 22 22 22 23 22 22 22 23 23 23 18 16 19 17 16 19 21 21 22 22 26 28 29 30 35 33 31 31 33 27 27 27 27 25 26 26 26 28 29
26 26 25 24 25 25 25 24 24 24 25 24 24 26 27 26 24 22 23 24 25 25 25 24 25 25 29 31 33 27 31 33 32 24 25 27 33 25 21 21 31 32 29 28 28
26 26 25 25 25 25 25 25 25 25 24 24 25 25 28 27 26 25 24 26 28 28 28 26 26 26 28 31 31 31 25 24 14 24 20 19 31 21 27 34 30 28 25 25 24
26 26 26 26 26 26 25 25 26 26 25 24 24 24 26 26 24 22 20 20 20 21 20 19 20 21 25 26 19 16 20 21 20 20 19 14 20 32 26 26 26 24 24 21 18
26 26 26 26 26 26 27 27 27 27 26 24 25 23 22 23 25 26 24 23 21 19 21 23 26 25 27 20 22 22 26 26 28 28 27 29 28 28 30 27 21 14 13 16 20
26 25 26 26 26 26 26 27 27 28 27 25 22 20 17 17 18 17 18 22 25 28 29 28 26 22 23 21 25 27 27 28 29 25 26 30 24 30 19 18 21 22 17 15 18
26 25 26 26 26 25 25 26 27 30 34 28 29 31 30 28 31 30 32 35 34 31 29 28 30 26 22 27 28 30 24 26 23 16 24 27 31 29 13 20 19 14 13 17 14
29 27 26 25 25 25 25 26 27 29 35 39 36 35 33 33 38 40 39 41 39 33 33 32 23 21 29 31 30 26 23 24 23 22 25 19 22 22 16 14 18 16 22 18 13
30 28 24 23 25 26 26 26 27 28 26 21 18 18 18 27 31 37 39 38 39 32 23 23 25 21 20 14 14 21 18 22 24 20 17 17 17 20 10 10 9 12 19 18 14
27 30 26 24 22 24 25 24 22 19 8 7 9 9 8 8 7 5 7 16 26 26 22 12 14 15 14 17 17 20 24 24 27 28 23 17 13 11 17 13 17 22 19 15 16
24 23 27 23 24 25 21 19 18 8 9 7 8 7 8 8 8 5 4 4 3 7 12 13 21 19 21 26 24 27 29 28 29 22 14 21 18 13 7 9 24 26 19 19 23
29 30 23 23 26 26 24 18 7 9 1 3 11 10 10 10 10 7 8 12 8 10 13 16 22 31 30 26 25 24 23 14 12 11 14 17 12 21 12 17 23 21 27 33 35
28 24 17 20 20 23 22 22 14 5 11 8 7 8 10 13 13 19 20 22 18 23 18 20 26 19 16 16 16 17 14 15 11 13 16 20 12 18 19 23 24 29 32 31 35
24 21 13 18 21 21 18 20 14 12 16 19 21 23 24 22 22 23 22 30 30 22 14 16 19 11 20 20 18 11 12 15 13 26 15 27 31 30 34 34 36 36 35 35 27
21 20 22 24 27 26 26 32 24 22 24 24 21 15 18 14 13 11 16 22 19 11 12 13 17 22 16 18 23 22 22 17 11 4 7 17 31 31 30 30 30 24 28 31 29
30 24 26 30 26 23 32 35 34 33 31 22 20 23 22 16 16 16 13 17 18 20 22 23 16 35 24 24 23 20 21 21 23 25 13 17 24 33 26 29 33 34 30 30 32
29 30 29 30 28 36 42 40 33 35 28 25 29 30 27 24 23 24 26 23 15 16 19 17 19 25 37 33 30 33 31 27 29 12 23 25 26 37 41 42 44 39 34 38 42
35 35 33 33 35 40 40 38 33 34 25 21 25 23 19 20 16 21 23 21 26 28 15 11 8 11 19 22 19 22 23 25 33 40 43 26 30 38 38 39 30 36 44 48 48
33 31 36 35 39 35 32 33 25 23 21 27 28 23 23 22 23 20 18 16 23 26 25 26 27 27 26 29 32 33 30 31 29 27 30 32 35 32 31 30 34 37 41 43 58
34 37 39 27 39 38 31 27 23 24 26 25 24 27 24 24 21 25 24 22 27 30 30 23 27 28 30 32 34 36 35 37 41 49 43 49 43 49 49 50 46 47 51 50 50
34 36 35 35 32 29 32 33 30 20 26 23 24 13 15 21 23 22 20 18 23 24 24 19 23 23 34 36 37 40 46 50 43 45 46 43 45 42 39 40 41 39 41 45 47
32 32 31 31 32 30 32 33 31 26 28 30 28 27 29 28 29 31 31 32 31 33 32 27 27 26 35 30 30 28 46 38 41 41 40 41 40 39 39 42 45 45 44 37 34
Wind_Direction
268 272 273 278 280 279 277 279 281 281 280 281 282 283 281 280 281 285 287 290 292 293 296 296 297 298 298 298 296 294 277 277 282 292 297 303 305 303 305 305 304 302 295 293 286
272 273 273 273 275 278 278 277 278 278 278 277 277 279 280 281 284 287 289 290 289 289 288 290 293 295 294 293 290 287 269 274 269 287 289 288 296 306 305 308 310 300 306 299 286
268 269 270 271 273 274 277 278 278 278 278 279 280 279 281 283 286 287 287 282 279 286 294 298 297 294 289 289 291 287 282 283 281 296 292 295 300 300 301 298 309 295 288 287 287
263 266 268 269 271 272 274 276 278 278 278 279 280 281 282 283 285 279 280 278 282 285 288 286 286 287 288 289 289 287 294 293 290 293 292 298 298 296 299 298 303 287 285 283 281
264 264 267 270 272 273 275 277 277 276 276 277 278 278 278 276 276 275 277 279 280 278 279 281 282 284 286 285 287 292 293 295 298 294 295 297 298 302 292 305 301 292 285 284 279
265 266 267 269 271 271 272 272 273 274 275 276 278 278 278 281 284 274 273 272 270 272 276 278 278 278 278 279 284 284 291 294 294 296 300 303 300 298 309 305 298 294 288 285 287
265 268 269 270 271 273 274 274 275 277 278 277 276 276 274 275 277 274 271 273 274 275 276 274 275 274 278 287 283 290 292 292 298 299 284 309 300 311 314 294 302 302 298 293 288
267 269 270 270 271 271 273 273 273 274 275 276 277 277 277 276 276 275 272 267 267 268 268 271 273 272 274 276 280 290 292 297 297 305 287 292 297 304 303 311 305 306 306 296 288
263 267 269 271 273 275 275 275 276 276 276 276 275 275 277 278 278 273 268 263 260 262 266 266 267 268 276 278 282 275 276 285 298 309 283 291 287 313 317 316 313 312 301 296 290
267 269 272 273 275 277 278 278 278 278 275 274 273 274 266 266 267 264 265 261 257 255 258 267 274 271 273 254 261 281 285 284 291 300 292 293 288 304 319 318 319 307 294 291 276
272 274 275 275 275 276 278 281 283 283 276 273 266 262 260 258 261 256 251 255 256 260 269 267 267 262 275 270 277 278 279 283 290 296 290 297 299 312 319 312 308 291 288 265 266
273 273 272 274 274 275 278 280 282 283 282 271 270 268 266 262 260 259 262 263 264 266 262 267 268 282 278 273 272 275 277 282 293 301 297 305 303 316 295 317 287 270 260 256 245
266 264 266 268 271 275 277 281 284 285 289 286 279 273 268 261 258 255 252 256 263 267 269 272 264 273 274 277 277 278 275 285 287 291 294 297 303 311 295 297 271 261 262 231 214
259 258 259 263 268 269 273 278 282 288 294 287 282 271 254 252 253 252 253 254 261 264 263 273 286 278 266 263 275 271 284 289 289 289 297 297 299 298 287 237 235 251 218 208 232
247 263 257 262 271 272 274 275 278 290 285 275 239 240 230 221 230 218 248 246 244 258 257 257 270 275 279 284 286 283 292 294 294 291 298 284 265 270 281 245 210 233 226 260 274
240 251 261 262 267 267 271 273 281 271 246 268 245 242 240 235 237 241 253 257 240 265 276 278 280 289 297 298 294 293 292 293 292 289 269 278 237 289 253 207 227 219 236 273 288
266 261 257 252 265 265 258 257 265 227 299 284 251 251 267 274 268 261 281 292 292 305 280 292 295 296 294 293 290 285 282 289 266 243 259 286 253 256 279 260 253 247 259 278 286
247 233 238 258 262 270 265 262 225 218 216 252 270 270 293 278 279 271 288 292 299 292 294 287 291 272 278 272 266 280 258 251 282 279 290 288 263 277 280 273 269 263 267 274 276
249 258 253 249 255 265 263 236 236 240 245 243 252 262 266 268 272 277 272 274 277 274 270 289 270 272 292 279 273 267 260 260 289 275 283 265 270 276 279 275 269 268 275 275 271
263 248 230 235 242 248 239 244 254 255 251 257 251 243 248 236 255 269 265 272 266 250 251 268 283 282 275 277 274 261 264 273 268 246 247 264 282 281 281 280 278 269 272 278 276
246 249 254 237 238 235 240 249 258 261 257 250 253 253 250 247 242 239 242 254 270 274 270 259 261 274 271 270 278 268 263 254 265 254 266 274 271 279 274 277 279 288 286 285 290
262 261 262 266 259 261 261 262 267 267 258 254 252 241 240 249 266 257 253 245 267 270 255 259 273 263 272 271 262 267 263 260 261 256 248 262 260 271 279 279 282 282 284 289 292
261 258 255 255 248 251 257 262 261 258 250 246 248 254 247 249 256 257 254 262 257 260 263 260 254 287 287 285 274 267 273 267 262 263 261 265 271 274 271 273 280 286 289 289 289
252 249 249 245 250 247 249 252 246 259 245 242 249 247 249 249 247 259 257 256 262 254 252 262 268 254 257 267 281 284 281 279 269 275 263 256 276 270 276 289 286 285 284 290 296
242 240 242 237 241 242 236 242 241 235 246 245 243 245 246 253 256 250 255 260 264 267 271 265 263 267 267 270 276 278 278 276 271 275 279 283 282 278 284 289 285 283 288 286 285
234 230 236 242 246 244 235 245 238 228 238 245 239 228 236 243 249 264 249 243 262 269 273 263 268 268 266 270 272 274 277 275 272 271 274 277 279 286 285 279 278 277 277 281 280
232 232 234 241 242 241 245 250 250 241 240 252 253 253 256 255 250 260 265 267 268 272 273 264 263 271 273 282 283 274 264 273 273 274 274 277 281 279 276 277 278 278 280 276 275
Height
3174 3175 3175 3175 3175 3175 3175 3175 3174 3174 3173 3173 3173 3173 3173 3173 3172 3172 3172 3172 3171 3170 3170 3170 3169 3169 3168 3168 3167 3167 3169 3168 3168 3167 3168 3164 3162 3161 3162 3162 3162 3159 3158 3157 3154
3172 3172 3172 3172 3173 3173 3172 3172 3172 3171 3171 3170 3170 3170 3170 3170 3170 3169 3169 3168 3168 3167 3167 3167 3167 3166 3166 3165 3164 3165 3165 3166 3165 3164 3163 3162 3160 3158 3158 3158 3158 3156 3155 3152 3151
3169 3169 3170 3170 3170 3170 3170 3169 3169 3169 3168 3167 3167 3166 3167 3167 3167 3166 3165 3165 3165 3165 3165 3165 3164 3164 3163 3162 3162 3160 3161 3163 3161 3160 3158 3156 3156 3154 3152 3153 3154 3153 3151 3149 3147
3166 3166 3167 3167 3167 3167 3167 3166 3166 3165 3165 3165 3164 3164 3164 3164 3167 3163 3162 3163 3163 3162 3162 3161 3161 3161 3160 3158 3158 3156 3155 3156 3157 3155 3153 3153 3151 3148 3146 3146 3149 3147 3145 3143 3142
3162 3162 3163 3163 3163 3163 3163 3163 3162 3162 3162 3161 3161 3160 3160 3161 3162 3161 3159 3159 3159 3158 3158 3158 3158 3158 3157 3156 3154 3150 3150 3151 3150 3149 3148 3147 3147 3144 3141 3142 3141 3140 3138 3136 3135
3157 3158 3158 3159 3158 3158 3158 3158 3158 3157 3157 3157 3157 3156 3156 3156 3157 3157 3156 3156 3155 3155 3155 3155 3154 3154 3152 3151 3150 3148 3146 3145 3144 3142 3141 3141 3140 3139 3140 3136 3135 3134 3132 3130 3128
3152 3153 3153 3153 3153 3153 3153 3153 3153 3152 3152 3152 3152 3151 3151 3152 3151 3152 3152 3151 3151 3151 3150 3150 3150 3150 3147 3146 3141 3142 3140 3140 3140 3138 3135 3136 3133 3133 3133 3131 3127 3126 3125 3124 3121
3148 3149 3149 3148 3148 3147 3148 3148 3147 3147 3147 3147 3147 3146 3145 3146 3146 3145 3145 3145 3144 3144 3144 3144 3144 3144 3143 3140 3138 3137 3136 3134 3136 3133 3131 3132 3128 3130 3127 3124 3122 3120 3117 3114 3114
3143 3144 3144 3144 3144 3143 3142 3142 3142 3142 3141 3141 3141 3141 3141 3141 3140 3139 3139 3139 3138 3139 3139 3139 3139 3139 3138 3136 3136 3135 3131 3132 3131 3132 3126 3125 3123 3122 3121 3118 3115 3114 3110 3107 3105
3138 3138 3139 3139 3139 3138 3138 3137 3136 3136 3136 3136 3135 3139 3136 3135 3134 3133 3133 3133 3133 3134 3134 3134 3133 3133 3134 3133 3131 3130 3128 3128 3126 3129 3124 3122 3118 3115 3114 3112 3109 3107 3103 3101 3098
3133 3134 3134 3135 3134 3133 3134 3133 3134 3131 3130 3131 3130 3131 3129 3131 3130 3130 3129 3128 3127 3127 3128 3127 3128 3127 3131 3130 3127 3125 3124 3122 3121 3121 3117 3114 3112 3110 3109 3107 3105 3102 3099 3093 3090
3127 3128 3128 3129 3128 3128 3128 3127 3126 3125 3119 3124 3123 3122 3122 3124 3123 3124 3124 3123 3120 3119 3119 3121 3118 3122 3123 3122 3122 3120 3118 3117 3116 3116 3111 3108 3105 3104 3104 3102 3096 3093 3091 3088 3088
3121 3121 3122 3123 3122 3123 3122 3122 3121 3118 3114 3111 3113 3111 3113 3115 3113 3113 3115 3112 3113 3113 3111 3113 3118 3116 3115 3115 3115 3115 3114 3112 3112 3109 3106 3101 3099 3098 3097 3095 3091 3087 3085 3084 3084
3113 3115 3116 3117 3119 3117 3117 3117 3117 3115 3111 3105 3103 3101 3101 3101 3102 3103 3104 3108 3106 3107 3110 3105 3107 3108 3108 3109 3110 3108 3109 3106 3104 3104 3104 3101 3089 3093 3091 3090 3085 3086 3081 3079 3080
3106 3109 3110 3109 3111 3111 3112 3112 3112 3116 3111 3103 3099 3098 3098 3100 3099 3099 3100 3098 3100 3101 3106 3105 3101 3104 3104 3103 3105 3103 3102 3101 3099 3096 3094 3096 3093 3083 3082 3082 3078 3079 3081 3078 3076
3098 3101 3103 3105 3105 3106 3106 3108 3110 3116 3103 3101 3098 3097 3098 3097 3098 3098 3099 3100 3099 3096 3099 3099 3098 3097 3101 3099 3098 3097 3095 3094 3094 3093 3086 3084 3085 3077 3077 3077 3071 3071 3074 3073 3073
3091 3093 3095 3096 3099 3100 3101 3104 3109 3104 3100 3099 3098 3098 3098 3097 3097 3097 3097 3097 3100 3098 3094 3096 3095 3091 3096 3095 3095 3094 3093 3090 3085 3085 3075 3080 3078 3073 3076 3073 3070 3070 3068 3067 3065
3084 3085 3088 3090 3092 3096 3098 3100 3096 3092 3094 3095 3096 3095 3097 3097 3097 3096 3095 3095 3096 3095 3093 3092 3090 3092 3091 3093 3093 3091 3092 3091 3079 3074 3070 3072 3065 3068 3069 3068 3066 3061 3061 3061 3060
3078 3080 3082 3085 3088 3090 3092 3090 3087 3089 3088 3090 3091 3092 3093 3094 3095 3094 3093 3090 3089 3092 3094 3090 3086 3088 3088 3086 3090 3087 3087 3086 3082 3077 3076 3065 3062 3065 3060 3060 3059 3057 3055 3054 3055
3069 3072 3074 3075 3080 3082 3082 3076 3081 3083 3083 3086 3084 3084 3083 3084 3088 3087 3087 3086 3085 3084 3085 3085 3080 3079 3081 3080 3082 3083 3082 3081 3081 3076 3068 3057 3055 3052 3060 3052 3052 3052 3051 3050 3048
3063 3065 3068 3067 3071 3072 3068 3067 3072 3073 3075 3081 3080 3079 3078 3078 3077 3079 3077 3078 3079 3079 3079 3081 3080 3073 3076 3073 3075 3077 3075 3074 3073 3069 3060 3056 3050 3052 3049 3049 3045 3044 3043 3041 3040
3056 3058 3058 3059 3063 3062 3060 3064 3065 3065 3066 3068 3069 3071 3072 3073 3071 3073 3073 3074 3074 3072 3070 3075 3073 3067 3062 3067 3069 3065 3066 3067 3065 3057 3053 3049 3044 3049 3044 3041 3039 3036 3034 3034 3031
3047 3049 3050 3051 3050 3050 3054 3053 3056 3057 3060 3061 3061 3061 3066 3066 3067 3065 3066 3067 3065 3066 3064 3065 3065 3063 3056 3059 3057 3057 3058 3058 3056 3053 3043 3040 3035 3042 3038 3032 3030 3028 3026 3023 3021
3040 3042 3040 3039 3040 3043 3046 3046 3048 3049 3050 3055 3054 3057 3059 3057 3060 3056 3059 3060 3058 3059 3059 3059 3057 3057 3055 3052 3054 3053 3052 3050 3050 3043 3032 3029 3029 3035 3034 3028 3023 3021 3017 3014 3010
3029 3029 3027 3028 3029 3034 3037 3037 3039 3043 3043 3045 3046 3047 3050 3051 3051 3050 3053 3053 3050 3050 3050 3051 3047 3048 3045 3045 3045 3042 3041 3039 3037 3033 3031 3022 3024 3024 3024 3022 3017 3015 3012 3007 3004
3017 3021 3022 3023 3025 3028 3028 3027 3030 3034 3034 3037 3039 3040 3041 3042 3042 3042 3043 3044 3043 3044 3042 3043 3038 3037 3031 3035 3034 3030 3027 3022 3024 3022 3017 3016 3012 3016 3013 3008 3006 3004 3002 2999 2996
3010 3012 3015 3017 3017 3019 3019 3021 3024 3026 3028 3028 3030 3031 3032 3034 3032 3032 3033 3034 3034 3033 3033 3033 3031 3029 3021 3025 3024 3018 3010 3014 3011 3011 3010 3006 3004 3001 3002 2999 2996 2993 2992 2989 2986